sat.trackr.live / text

‹ back to catalog

DMSP 5D-3 F17 (USA 191)

NORAD 29522 · 2006-050A

PAYLOAD ACTIVE UNKNOWN

§ Identity

Operator
Country
US
Launch date
2006-11-04
Launch site
AFWTR
Launch vehicle
Mass (kg)
RCS (m²)
4.48

Purposes: earth_obs

External: N2YO · Heavens-Above · Gunter

§ Orbital elements

Epoch: 2026-09-13T03:13:17.878080Z

Period
101.77 min
Inclination
98.7424°
Eccentricity
0.0010416
Mean motion
14.15007124 rev/d
Perigee alt
834.8 km
Apogee alt
849.8 km
Semi-major
7,220.4 km
B*
7.0229e-5
RAAN
260.9222°
Arg perigee
158.7377°
Mean anomaly
201.4232°
Rev number
2,486

§ Raw data

DMSP 5D-3 F17 (USA 191)1 29522U 06050A   26256.13423470  .00000093  00000+0  70229-4 0  99912 29522  98.7424 260.9222 0010416 158.7377 201.4232 14.15007124 24868

JSON: /api/v1/satellites/29522 · /tle

For live sub-satellite position, see the globe view (requires WebGL).

§ Visibility from observer

Set your observer location to see the next 7 days of passes ≥ 10°. The values pass through the URL so the page stays shareable.

No JS? Fill the form by hand. The geolocation button needs JavaScript.

§ Radio — SatNOGS DB

ModeDescriptionDownlinkUplink
FM Mode S 2.250 GHz
FM Mode S - Mission Data 2.233 GHz
FM Mode U - RTD1 400.328 MHz
FM Mode U - RTD2 400.822 MHz
FM RTD 2.253 GHz
BPSK S-band telemetry 2.239 GHz

6 transmitters · refreshed weekly from db.satnogs.org